Regional Weather Roundup
Issued by NWS Wakefield, VA

Home | Current Version | Previous Version | Text Only | Print | Product List | Glossary On
Versions: 1 2 3 4 5 6 7 8 9 10 11 12 13 14 15 16 17 18 19 20 21 22 23 24 25 26 27 28 29 30 31 32 33 34 35 36 37 38 39 40 41 42 43 44 45 46 47 48 49 50
000
ASUS41 KAKQ 010015
RWRAKQ

REGIONAL WEATHER ROUNDUP
NATIONAL WEATHER SERVICE WAKEFIELD VA
800 PM EDT TUE MAY 31 2016

Note: "fair" indicates few or no clouds below 12,000 feet with no
significant weather and/or obstructions to visibility. * = Denotes
station may not report precipitation (e.g., rain,snow,etc.),
thunder or fog.

VAZ042-051-052>054-056-010100-
NORTHERN VIRGINIA

CITY           SKY/WX    TMP DP  RH WIND       PRES   REMARKS
WASH NATIONAL  MOCLDY    80  69  69 S8        29.96R
DULLES         MOCLDY    81  56  42 NE8       29.96R
FORT BELVOIR   FAIR      78  70  76 VRB3      29.95S
QUANTICO       FAIR      79  72  79 CALM      29.95S
FREDERICKSBRG* FAIR      81  70  69 E5        29.94S
STAFFORD*      FAIR      79  69  70 E3        29.99S
WARRENTON      FAIR      79  63  58 CALM      29.95S
CULPEPER*      FAIR      80  69  69 CALM      29.96S
MANASSAS*      PTCLDY    82  70  65 S6        29.95R
LEESBURG*      FAIR      84  59  42 NE5       29.97S
WINCHESTER     FAIR      77  61  57 CALM      29.97S
FRONT ROYAL*   FAIR      77  63  61 CALM      29.96S
LURAY*         FAIR      77  63  61 N3        29.98S
$$

VAZ048-049-060>072-079>083-010100-
CENTRAL AND SOUTH CENTRAL VIRGINIA

CITY           SKY/WX    TMP DP  RH WIND       PRES   REMARKS
RICHMOND       FAIR      78  68  71 E7        29.95S
CHESTERFIELD*    N/A    N/A N/A N/A MISG        N/A
PETERSBURG*    FAIR      79  68  69 E5        29.96S
HANOVER        FAIR      77  68  73 CALM      29.97R
TAPPAHANNOCK*  FAIR      80  69  70 CALM      29.97S
QUINTON*       FAIR      78  71  77 CALM      29.95S
CHARLOTTSVILLE FAIR      79  66  64 S3        29.96S
GORDONSVILLE*  FAIR      77  70  79 CALM      29.96R
ORANGE*        FAIR      81  68  65 CALM      29.98R
LOUISA*        FAIR      79  72  78 CALM      29.95S
BUMPASS*       FAIR      76  70  82 CALM      29.96R
FARMVILLE*     FAIR     N/A N/A N/A CALM      29.96
CREWE*         FAIR      77  74  90 CALM      29.96R
FORT PICKETT*  NOT AVBL
CHASE CITY*    FAIR      78  67  68 CALM      29.96S
CLARKSVILLE*   FAIR      79  68  69 NE3       29.95R
SOUTH HILL*    FAIR      78  70  75 CALM      30.01S
LAWRENCEVILLE* FAIR      77  70  77 CALM      29.95S
EMPORIA*       FAIR      77  68  73 E3        29.96S
$$

VAZ088>098-010100-
SOUTHEAST VIRGINIA

CITY           SKY/WX    TMP DP  RH WIND       PRES   REMARKS
NORFOLK        FAIR      74  67  78 E7        29.96R
VIRGINIA BEACH MOCLDY    76  67  73 E6        29.96R
NORFOLK NAVAL  MOCLDY    74  68  81 E9        29.97S
WEST POINT*    FAIR      76  67  74 SE5       29.97R
SALUDA*        FAIR      75  70  84 CALM      29.96S
NEWPORT NEWS   FAIR      76  67  73 E6        29.96R
LANGLEY AFB    FAIR      75  68  78 SE7       29.96R
FORT EUSTIS    FAIR      78  74  85 E5        29.94R
WILLIAMSBURG*  FAIR      75  70  83 CALM      29.97R
HR EXEC AP*    FAIR      75  66  73 E3        29.97S
FRANKLIN*      FAIR      76  66  70 E5        29.95S
US460-WAKEFLD  FAIR      78  67  68 E3        29.95S
$$

VAZ020-022-025-037-045-010100-
WEST CENTRAL AND SOUTHWEST VIRGINIA

CITY           SKY/WX    TMP DP  RH WIND       PRES   REMARKS
STAUNTON*      FAIR      77  58  53 CALM      30.00S
WAYNESBORO*    FAIR      78  60  54 E7        30.00S
HOT SPRINGS VA FAIR      70  55  59 E5        30.11R
LYNCHBURG      FAIR      77  66  68 E6        29.99R
DANVILLE       FAIR      79  68  69 E5        29.96R
SOUTH BOSTON*  FAIR      79  68  69 CALM      29.96R
MARTINSVILLE   FAIR      74  69  82 CALM      29.99S
ROANOKE        FAIR      80  64  58 E8        30.00R
BLACKSBURG     MOCLDY    76  64  66 E5        30.06R
DUBLIN*        MOCLDY    76  65  67 SE5       30.04R
MARION*        LGT RAIN  66  64  93 NW3       30.08F
HILLSVILLE*    FAIR      70  63  79 CALM      30.05S
RICHLANDS*     CLOUDY    72  53  51 SE7G16    30.05R
WISE*          FAIR      77  52  41 N3        30.06R
ABINGDON*      FAIR      80  60  51 SE5       30.01R
$$

MDZ021>025-VAZ099-100-010100-
SOUTHERN MARYLAND AND THE DELMARVA PENINSULA

CITY           SKY/WX    TMP DP  RH WIND       PRES   REMARKS
PATUXENT RIVER PTCLDY    78  67  68 S3        29.95S
BAY BRIDGE APT CLEAR     77  70  78 CALM      29.95S
LEONARDTOWN    CLEAR     77  68  73 CALM      29.98R
DOVER          PTCLDY    77  73  88 SE3       29.94R
GEORGETOWN     CLOUDY    77  70  79 S7        29.96R
EASTON         PTCLDY    81  73  78 CALM      29.99R
CAMBRIDGE      CLEAR     77  66  69 CALM      29.95S
SALISBURY      CLOUDY    73  70  90 CALM      29.96R
OCEAN CITY     MOCLDY    70  67  90 S6        29.97R
WALLOPS ISLAND FAIR      72  67  84 S7        29.98R
ACCOMACK*      FAIR      72  64  78 S3        29.97S
$$

NCZ012>017-030>032-010100-
NORTH CENTRAL AND EASTERN NORTH CAROLINA

CITY           SKY/WX    TMP DP  RH WIND       PRES   REMARKS
ROANOKE RAPIDS FAIR      79  68  69 E3        29.94R
RALEIGH        CLOUDY    80  67  64 E7        29.94R
ELIZABETH CITY PTCLDY    73  67  81 E9        29.96R
AHOSKIE*       CLOUDY    76  69  79 CALM      29.95R
EDENTON*       PTCLDY    75  67  76 E7        29.96R
CURRITUCK*     PTCLDY    73  69  89 E5        29.97S
KILL DEVIL HLS MOCLDY    70  66  88 NE5       29.96R
MANTEO         CLOUDY    70  69  95 E12       29.96S
CAPE HATTERAS  MOCLDY    74  71  91 NE6       29.94R
TARBORO*       FAIR      77  72  83 CALM      29.95R
GOLDSBORO      MOCLDY    74  74 100 E6        29.92R
WASHINGTON     PTCLDY    74  71  92 E6        29.94R
GREENVILLE     MOCLDY    73  73 100 E5        29.95S
NEW BERN       CLOUDY    74  71  91 NE7       29.94R
WILMINGTON     CLOUDY    74  72  93 NE6       29.89S
$$

VAZ048-010100-
ELSEWHERE

CITY           SKY/WX    TMP DP  RH WIND       PRES   REMARKS
HARRISBURG PA  MOCLDY    80  63  55 CALM      29.94S
BALTIMORE      MOCLDY    79  65  62 SE3       29.95R
ANNAPOLIS      CLEAR     76  69  79 CALM      29.95S
ANDREWS AFB    FAIR      77  69  76 S3        29.95S
PHILADELPHIA   MOCLDY    84  50  30 NW7       29.94R
HENDERSON NC   CLOUDY    77  66  69 E3        29.96R
GREENSBORO     PTCLDY    79  63  57 E7        29.95R
ROCKY MOUNT    PTCLDY    76  70  82 SE3       29.94R
$$

VAZ100-010100-
MARINE

STATION/POSITION TIME  TEMP    WIND        PRES    WAVE   SWELL
                       AIR SEA DIR/SP/G            HT/PER HT/PER
                 (UTC) (F)     (DEG/KT/KT) (MB)    (FT/S) (FT/S)
BRANDYWINE LGT   2312   67                   N/A
CAPE MAY NJ      2318   70 69                N/A
LEWES DE         2312   77 68                N/A
15NM E FENWICK I 2350   70 68              1015.0R   3/ 8
OCEAN-CITY-INLET 2312   68 62                N/A
WACHAPREAGUE VA  2312   72 78                N/A
THOMAS POINT MD  0000   76 71  190/  6/  6 1015.4S
GOOSES REEF MD   0000   76 75  210/  2/  4 1015.3S   0
COVE POINT MD    2312   76                   N/A
SOLOMONS ISLAND  2312   77 71                N/A
BISHOPS HEAD MD  2312   77 83                N/A
POTOMAC MD       0000   75 76  160/  6/  8 1013.5R   0
CAMBRIDGE MD     2312   79 70                N/A
LEWISETTA VA     2312   77 76                N/A
RAPPAHANNOCK LGT 2300                      1015.0R
STINGRAY PT      0000   74 75  170/  4/  6 1015.1R   0
YORK RVR RNG VA  2312   73                   N/A
YORKTOWN VA      2312   76 71                N/A
JAMESTOWN VA     0000   78 77  110/  4/  6   N/A     0
DOMINION TERM VA 2312   73                   N/A
KIPTOPEKE VA     2312      70                N/A
CHES BAY BRIDGE  2312   72 64                N/A
CAPE HENRY VA    2312   71                   N/A
CHESAPEAKE LGHT  2300   70      90/  6/  6 1015.1R
WILLOUBY STN VA  2312   72                   N/A
CAPE HENRY BUOY  2312      71                N/A     3/ 8
1ST LANDING BUOY 0000   72 71  110/  6/  8 1014.4R   1/ 4
CAPE CHARLES BUO 2326      73                N/A     3/ 8   2/ 8
OFFSHORE WE BUOY 2321      72                N/A     4/ 8   3/ 8
64NM E OF VA BCH 2350   68 67   30/  8/  8 1014.5R   4/ 8   3/ 8
DUCK PIER NC     2312   69 61                N/A
44056 DUCK FRF   2311      69                N/A     3/ 8
OREGON INLET NC  2312   71 74                N/A
HATTERAS NC      2312   75 75                N/A
DIAMOND SHLS NC  2350   76 81  180/ 21/ 23 1013.4    3/ 8   2/13
CAPE LOOKOUT NC  0000   73     140/  6/  6 1012.6R
$$



USA.gov is the U.S. government's official web portal to all federal, state and local government web resources and services.